This demonstration page uses our WeatherBlox Daily Observations layout. Learn more.

Left ArrowRight Arrow

39.92423, -83.80882

Hourly Observations for October 7, 2022

Temp ( °F °C ) Dew Point ( °F °C ) Humidity (%) Winds ( mph kmh ) Pressure ( in mb ) Visibility ( mi km ) Precip ( " mm )
12:56 am 00:56 Clear 53 11.7 47 8.3 80 80 SSW 6 9 30.05 1018 10 16 0.00 0.00
1:56 am 01:56 Clear 52 11.1 48 8.9 86 86 SSW 6 9 30.04 1017 10 16 0.00 0.00
2:56 am 02:56 Clear 52 11.1 49 9.4 89 89 NW 7 11 30.06 1018 10 16 0.00 0.00
3:56 am 03:56 Clear 52 11.1 51 10.6 97 97 NNW 9 15 30.08 1019 10 16 0.00 0.00
4:56 am 04:56 Mostly Clear 52 11.1 50 10 93 93 N 13 20 30.10 1019 10 16 0.00 0.00
5:56 am 05:56 Mostly Cloudy 50 10 48 8.9 93 93 NNW 9 15 30.12 1020 10 16 0.00 0.00
6:56 am 06:56 Cloudy 50 10 50 10 100 100 N 9 15 30.14 1021 10 16 0.00 0.00
7:14 am 07:14 Cloudy 50 10 50 10 100 100 N 9 15 30.16 1021 10 16 0.00 0.00
7:56 am 07:56 Cloudy 51 10.6 51 10.6 100 100 N 12 19 30.16 1021 10 16 0.00 0.00
8:24 am 08:24 Cloudy 52 11 52 11 100 100 NNW 9 15 30.18 1022 10 16 0.00 0.00
8:56 am 08:56 Cloudy 52 11.1 50 10 93 93 N 12 19 30.18 1022 10 16 0.00 0.00
9:04 am 09:04 Cloudy 52 11 48 9 87 87 NNW 12 19 30.19 1022 10 16 0.00 0.00
9:26 am 09:26 Cloudy 52 11 48 9 87 87 NNW 13 20 30.20 1023 10 16 0.00 0.00
9:56 am 09:56 Cloudy 51 10.6 45 7.2 79 79 NNW 16 26 30.21 1023 10 16 0.00 0.00
10:56 am 10:56 Cloudy 52 11.1 43 6.1 71 71 N 12 19 30.23 1024 10 16 0.00 0.00
11:56 am 11:56 Cloudy 53 11.7 41 5 63 63 N 13 20 30.25 1024 10 16 0.00 0.00
12:56 pm 12:56 Mostly Cloudy 53 11.7 38 3.3 56 56 NW 12 19 30.26 1025 10 16 0.00 0.00
1:18 pm 13:18 Mostly Cloudy 52 11 37 3 58 58 NNW 12 19 30.26 1025 10 16 0.00 0.00
1:56 pm 13:56 Mostly Cloudy 55 12.8 37 2.8 51 51 NNW 13 20 30.26 1025 10 16 0.00 0.00
2:56 pm 14:56 Mostly Cloudy 53 11.7 37 2.8 54 54 NNW 14 22 30.25 1025 10 16 0.00 0.00
3:56 pm 15:56 Cloudy 51 10.6 36 2.2 56 56 NNW 13 20 30.27 1025 10 16 0.00 0.00
4:56 pm 16:56 Cloudy 50 10 36 2.2 58 58 NNW 12 19 30.28 1025 10 16 0.00 0.00
5:56 pm 17:56 Mostly Cloudy 49 9.4 35 1.7 59 59 NNW 12 19 30.28 1025 10 16 0.00 0.00
6:56 pm 18:56 Mostly Cloudy 48 8.9 35 1.7 61 61 N 7 11 30.29 1026 10 16 0.00 0.00
7:56 pm 19:56 Mostly Clear 42 5.6 34 1.1 73 73 Calm 30.31 1026 10 16 0.00 0.00
8:56 pm 20:56 Partly Cloudy 39 3.9 35 1.7 86 86 NNW 3 6 30.33 1027 10 16 0.00 0.00
9:56 pm 21:56 Cloudy 44 6.7 38 3.3 79 79 NNW 3 6 30.34 1027 10 16 0.00 0.00
10:56 pm 22:56 Clear 40 4.4 36 2.2 86 86 NNW 3 6 30.35 1028 10 16 0.00 0.00
11:56 pm 23:56 Clear 40 4.4 37 2.8 89 89 NNW 6 9 30.35 1028 10 16 0.00 0.00

Powered by AerisWeather